www.pogodaiklimat.ru

Погода и климат >> Архив погоды >> Норвегия >> Тромсё


ПОГОДА в Тромсё

  • Прогноз погоды в Тромсё
  • Монитор погоды в Тромсё

АРХИВ ПОГОДЫ в Тромсё

Время (UTC), дата Ветер
(напр.,м/с)
 
Видим.   Явления Облачность Т
(С)
Тd
(С)
f
(%)
Тe
(С)
Тes
(С)
Комфортность P
(гПа)
Po
(гПа)
Тmin
(С)
Tmax
(С)
R
(мм)
R24
(мм)
S
(см)
07 11.07 СВ 2
{3}
н/о н/о +12.3 +7.2 71 +11 +11 1013.8 1000.1
08 11.07 СВ 1
{4}
н/о н/о +13.8 +6.9 63 +14 +14 1013.7 1000.0 0.1
09 11.07 СВ 2
{4}
>70 км 9/8 1000 м
[Sc Ac trans]
+12.7 +6.3 65 +12 +13 1013.7 1000.0
10 11.07 СВ 2
{4}
н/о н/о +13.7 +6.1 60 +13 +13 1013.6 999.9
11 11.07 СВ 3
{4}
н/о н/о +14.8 +3.9 48 +14 +14 1013.2 999.6
12 11.07 СВ 3
{4}
>70 км 5/1 1000 м
[Cu hum Ac trans]
+14.5 +6.1 57 +14 +19 1013.1 999.5 0.1
13 11.07 СВ 3
{6}
н/о н/о +16.0 +6.7 54 +16 +16 1013.2 999.6
14 11.07 СВ 4
{6}
н/о н/о +16.2 +7.2 55 +16 +16 1013.2 999.7
15 11.07 СВ 4
{6}
>70 км 5/1 1000 м
[Cu hum Ac trans Cc]
+15.0 +7.1 59 +14 +17 1013.3 999.7
16 11.07 С 4
{7}
н/о н/о +14.5 +6.9 60 +13 +13 1013.2 999.6
17 11.07 СВ 3
{6}
н/о н/о +13.8 +6.9 63 +13 +13 1013.5 999.8
18 11.07 С 3
{7}
>70 км 1/1 1000 м
[Cu hum Ac trans]
+12.8 +6.8 67 +12 +13 1013.3 999.6 +10.6 +16.8 0.1
19 11.07 С 2
{5}
н/о н/о +11.8 +6.9 72 +11 +11 1013.6 999.8
20 11.07 С 4
{5}
н/о н/о +10.4 +6.4 76 +8 +8 1013.6 999.8
21 11.07 СВ 1
{5}
>70 км 1/1 100 м
[St Ac trans]
+9.0 +6.1 82 +8 +9 1014.1 1000.2
22 11.07
{4}
н/о н/о +7.8 +6.1 89 1014.3 1000.3
23 11.07 С 2
{4}
н/о н/о +7.1 +5.7 91 +5 +5 1014.2 1000.2
00 12.07 С 2
{5}
>70 км 1/1 100 м
[St Ac trans]
+6.9 +5.7 92 +5 +5 1014.3 1000.3
01 12.07 С 2
{4}
н/о н/о +6.7 +5.7 93 +4 +4 1014.3 1000.3
02 12.07 С 2
{5}
н/о н/о +6.8 +5.6 92 +4 +4 1014.4 1000.4
03 12.07 С 1
{4}
>70 км 1/1 100 м
[St Ac trans]
+7.4 +5.9 90 +6 +7 1014.4 1000.4
04 12.07 СВ 2
{5}
н/о н/о +9.4 +5.8 78 +8 +8 1014.3 1000.4
05 12.07 С 2
{4}
н/о н/о +10.7 +5.9 72 +10 +10 1014.4 1000.6
06 12.07 С 2
{5}
>70 км 8/6 300 м
[St Ac trans Ci fib]
+10.8 +6.2 73 +10 +11 1014.5 1000.7 +6.6 +12.9
07 12.07 СВ 2
{5}
н/о н/о +10.4 +5.8 73 +9 +9 1014.7 1000.9
08 12.07 СВ 3
{5}
н/о н/о +10.9 +6.3 73 +9 +9 1014.6 1000.8
09 12.07 СВ 3
{6}
>70 км 1/1 200 м
[St Ci fib]
+11.7 +6.4 70 +10 +17 1014.4 1000.6
10 12.07 н/о
11 12.07 СВ 2
{5}
н/о н/о +14.5 +7.3 62 +14 +14 1014.1 1000.5
12 12.07 СВ 3
{6}
>70 км 1/1 1000 м
[Cu hum Ci fib]
+15.5 +7.0 57 +15 +22 1013.8 1000.2
13 12.07 СВ 4
{6}
н/о н/о +16.1 +7.9 58 +15 +15 1013.8 1000.2
14 12.07 СВ 4
{7}
н/о н/о +15.8 +7.6 58 +15 +15 1013.9 1000.3
15 12.07 С 3
{7}
>70 км 1/1 1000 м
[Cu med, cong Ci fib]
+15.6 +7.6 59 +15 +19 1013.8 1000.2
16 12.07 С 4
{7}
н/о н/о +15.8 +7.6 58 +15 +15 1013.7 1000.1
17 12.07 С 5
{7}
н/о н/о +14.8 +7.6 62 +13 +13 1013.7 1000.1
18 12.07 С 4
{7}
>70 км 1/0
[Ci fib]
+14.1 +7.2 63 +13 +14 1013.8 1000.1 +10.2 +16.1
19 12.07 СВ 2
{6}
н/о н/о +11.5 +7.2 75 +10 +10 1014.1 1000.3
20 12.07 С 2
{4}
н/о н/о +10.3 +7.2 81 +9 +9 1014.4 1000.6
21 12.07 СВ 1
{4}
>70 км 1/0
[Ci fib]
+9.4 +6.8 84 +9 +9 1014.7 1000.8
22 12.07 СВ 1
{2}
н/о н/о +8.6 +6.4 86 +8 +8 1014.9 1001.0
23 12.07 В 1
{3}
н/о н/о +7.4 +5.9 90 +6 +6 1015.2 1001.2
00 13.07 С 1
{6}
>70 км ясно +7.2 +6.1 93 +6 +6 1015.2 1001.2
01 13.07 СВ 2
{3}
н/о н/о +6.8 +5.8 93 +4 +4 1015.3 1001.3
02 13.07 СВ 2
{4}
н/о н/о +8.1 +6.9 92 +6 +6 1015.4 1001.4
03 13.07 С 2
{4}
>70 км 1/1 300 м
[St]
+8.5 +6.5 87 +7 +7 1015.2 1001.3
04 13.07 СВ 1
{3}
н/о н/о +10.5 +6.8 78 +10 +10 1014.9 1001.1
05 13.07 В 1
{3}
н/о н/о +11.4 +6.9 74 +11 +11 1014.9 1001.1
06 13.07 СВ 2
{4}
>70 км 4/0 2000 м
[Ac trans]
+12.2 +6.7 69 +11 +15 1014.9 1001.1 +6.8 +14.1
07 13.07 СВ 3
{5}
н/о н/о +12.5 +6.6 67 +11 +11 1014.8 1001.1
08 13.07 СВ 2
{5}
н/о н/о +14.5 +7.3 62 +14 +14 1014.9 1001.2
09 13.07 СВ 5
{7}
>70 км 1/1 1000 м
[Cu hum Ac trans Ci fib]
+15.3 +6.8 57 +14 +18 1014.7 1001.1
10 13.07 СВ 4
{7}
н/о н/о +16.0 +7.2 56 +15 +15 1014.6 1001.0
11 13.07 СВ 5
{8}
н/о н/о +16.1 +6.5 53 +15 +15 1014.6 1001.0
12 13.07 СВ 5
{8}
>70 км 3/1 1000 м
[Cu hum Ac trans]
+17.0 +7.6 54 +16 +20 1014.3 1000.8
13 13.07 СВ 5
{8}
н/о н/о +16.3 +7.3 55 +15 +15 1014.5 1000.9
14 13.07 СВ 5
{8}
н/о н/о +16.1 +6.8 54 +15 +15 1014.6 1001.0
15 13.07 СВ 5
{8}
70 км 1/1 1000 м
[Cu hum]
+15.5 +7.0 57 +14 +17 1014.9 1001.3
16 13.07 С 6
{8}
н/о н/о +14.1 +6.2 59 +12 +12 1015.1 1001.4
17 13.07 СВ 6
{9}
н/о н/о +12.9 +5.8 62 +11 +11 1015.2 1001.5
18 13.07 СВ 6
{9}
70 км 1/1 1000 м
[Cu hum Ac trans]
+11.5 +5.6 67 +9 +9 1015.5 1001.7 +11.5 +17.2
19 13.07 С 6
{10}
н/о н/о +9.9 +5.3 73 +7 +7 1015.8 1001.9
20 13.07 С 6
{10}
н/о н/о +9.2 +5.2 76 +6 +6 1016.1 1002.2
21 13.07 С 6
{10}
65 км 6/5 1000 м
[Cu Sc Ci fib]
+8.8 +5.2 78 +5 +5 1016.3 1002.4
22 13.07 СВ 6
{10}
н/о н/о +8.6 +5.2 79 +5 +5 1016.5 1002.5
23 13.07 СВ 5
{9}
н/о н/о +8.4 +5.0 79 +5 +5 1016.6 1002.6
00 14.07 СВ 5
{10}
60 км 10/10 1000 м
[Sc]
+8.2 +4.6 78 +5 +5 1016.7 1002.7
01 14.07 СВ 4
{8}
н/о н/о +8.2 +4.6 78 +5 +5 1016.8 1002.8
02 14.07 СВ 4
{7}
н/о н/о +8.0 +4.6 79 +5 +5 1016.8 1002.8
03 14.07 СВ 4
{7}
40 км 10/10 600 м
[Sc]
+7.8 +4.6 80 +5 +5 1016.9 1002.9
04 14.07 СВ 4
{7}
н/о н/о +7.9 +4.3 78 +5 +5 1016.9 1002.9
05 14.07 СВ 3
{7}
н/о н/о +8.1 +4.3 77 +6 +6 1016.9 1002.9
06 14.07 СВ 3
{8}
40 км 10/10 600 м
[Sc]
+8.4 +4.2 75 +6 +6 1016.8 1002.8 +7.8 +11.5
07 14.07 СВ 3
{6}
н/о н/о +8.7 +4.3 74 +6 +6 1016.9 1002.9
08 14.07 СВ 3
{6}
н/о н/о +9.2 +4.0 70 +7 +7 1016.9 1003.0
09 14.07 СВ 4
{6}
65 км 10/10 600 м
[Sc]
+9.6 +3.8 67 +7 +7 1017.0 1003.1
10 14.07 СВ 3
{6}
н/о н/о +10.2 +3.7 64 +8 +8 1016.8 1002.9
11 14.07 СВ 4
{6}
н/о н/о +10.8 +3.8 62 +9 +9 1016.6 1002.7
12 14.07 С 3
{6}
70 км 9/9 600 м
[Sc]
+11.4 +3.7 59 +10 +11 1016.4 1002.6
13 14.07 СВ 4
{6}
н/о н/о +11.2 +3.7 60 +9 +9 1016.4 1002.6
14 14.07 СВ 3
{6}
н/о н/о +11.5 +3.6 58 +10 +10 1016.3 1002.5
15 14.07 СВ 4
{5}
>70 км 9/9 600 м
[Sc]
+11.2 +3.7 60 +9 +10 1016.1 1002.3
16 14.07 С 2
{6}
н/о н/о +10.9 +3.5 60 +10 +10 1016.1 1002.3
17 14.07 СВ 3
{6}
н/о н/о +10.4 +3.9 64 +9 +9 1016.1 1002.2
18 14.07 СВ 3
{6}
>70 км 9/9 1000 м
[Sc]
+10.0 +3.7 65 +8 +8 1015.9 1002.0 +8.4 +11.5
19 14.07 СВ 3
{6}
н/о н/о +9.3 +3.7 68 +7 +7 1015.7 1001.8
20 14.07 СВ 3
{6}
н/о н/о +8.9 +3.3 68 +7 +7 1015.5 1001.6
21 14.07 С 3
{5}
>70 км 9/9 1000 м
[Sc]
+8.4 +3.5 71 +6 +6 1015.7 1001.7
22 14.07 С 3
{5}
н/о н/о +7.4 +3.5 76 +5 +5 1015.5 1001.5
23 14.07 С 4
{5}
н/о н/о +7.0 +4.5 84 +3 +3 1015.3 1001.3
00 15.07 СВ 3
{6}
>70 км 9/3 1000 м
[Sc Ac trans]
+7.4 +3.3 75 +5 +5 1015.1 1001.1
01 15.07 С 3
{5}
н/о н/о +7.0 +3.4 78 +4 +4 1015.1 1001.1
02 15.07 С 2
{4}
н/о н/о +6.8 +4.1 83 +5 +5 1015.0 1001.0
03 15.07 СВ 1
{3}
>70 км 8/3 1000 м
[Sc Ac trans]
+7.4 +4.7 83 +7 +7 1014.9 1000.9
04 15.07 СВ 1
{3}
н/о н/о +7.8 +4.9 82 +7 +7 1015.0 1001.0
05 15.07 СВ 2
{3}
н/о н/о +8.6 +4.6 76 +7 +7 1014.8 1000.9
06 15.07 СВ 2
{5}
>70 км 9/1 600 м
[Cu med, cong Ac trans]
+9.3 +3.5 67 +8 +10 1014.6 1000.7 +6.8 +10.1
07 15.07 СВ 2
{4}
н/о н/о +9.8 +2.9 62 +9 +9 1014.4 1000.5
08 15.07 СВ 2
{4}
н/о н/о +11.0 +2.6 56 +10 +10 1014.4 1000.6
09 15.07 СЗ 2
{4}
>70 км 9/8 600 м
[Sc Ac trans]
+11.2 +4.7 64 +10 +11 1014.5 1000.7
10 15.07 СЗ 1
{3}
н/о н/о +11.6 +3.6 58 +12 +12 1014.5 1000.7
11 15.07 С 2
{4}
н/о н/о +11.4 +4.6 63 +10 +10 1014.5 1000.7
12 15.07 С 2
{5}
>70 км 10/10 600 м
[Sc]
+11.6 +5.7 67 +11 +11 1014.6 1000.8
13 15.07 СВ 3
{5}
н/о н/о +11.2 +4.9 65 +10 +10 1014.8 1001.0
14 15.07 С 2
{5}
н/о н/о +11.9 +4.6 61 +11 +11 1014.8 1001.0
15 15.07 С 4
{6}
>70 км 10/10 600 м
[Sc]
+11.2 +5.5 68 +9 +9 1014.8 1001.0
16 15.07 С 4
{6}
н/о н/о +10.4 +5.6 72 +8 +8 1014.9 1001.1
17 15.07 СВ 3
{5}
н/о н/о +10.7 +5.3 69 +9 +9 1015.1 1001.3
18 15.07 С 4
{6}
>70 км 10/4 600 м
[Sc Ac trans]
+10.2 +5.0 70 +8 +8 1015.3 1001.4 +9.1 +12.5
19 15.07 СВ 3
{6}
н/о н/о +9.5 +4.9 73 +7 +7 1015.4 1001.5
20 15.07 С 3
{6}
н/о н/о +8.9 +4.7 75 +7 +7 1015.6 1001.7
21 15.07 С 3
{5}
>70 км 9/5 300 м
[Sc Ac trans]
+8.6 +4.6 76 +6 +6 1015.9 1002.0
22 15.07 С 3
{5}
н/о н/о +8.3 +4.5 77 +6 +6 1016.1 1002.1
23 15.07 С 2
{5}
н/о н/о +7.8 +4.8 81 +6 +6 1016.3 1002.3
00 16.07 С 3
{6}
>70 км шквал 9/8 300 м
[Sc Ac trans]
+7.7 +4.5 80 +5 +5 1016.3 1002.3
01 16.07 С 2
{4}
н/о н/о +7.6 +5.1 84 +6 +6 1016.4 1002.4
02 16.07
{3}
н/о н/о +7.8 +5.1 83 1016.6 1002.6
03 16.07 С 2
{3}
>70 км 9/9 300 м
[Sc]
+7.8 +5.1 83 +6 +6 1016.7 1002.7
04 16.07 С 2
{4}
н/о н/о +8.2 +5.0 80 +6 +6 1016.8 1002.8
05 16.07
{4}
н/о н/о +8.4 +5.0 79 1016.8 1002.8
06 16.07 СВ 3
{4}
70 км 10/10 300 м
[Sc]
+9.1 +4.1 71 +7 +7 1016.8 1002.9 +7.6 +10.3
07 16.07 СВ 3
{5}
н/о н/о +9.7 +4.3 69 +8 +8 1016.8 1002.9
08 16.07 С 1
{3}
н/о н/о +10.2 +4.8 69 +10 +10 1016.8 1002.9
09 16.07 СВ 2
{3}
70 км 9/1 600 м
[Cu Sc Ac und]
+10.4 +4.8 68 +9 +12 1016.7 1002.8
10 16.07 СЗ 2
{3}
н/о н/о +10.3 +4.7 68 +9 +9 1016.8 1002.9
11 16.07 СЗ 1
{4}
н/о н/о +11.1 +5.2 67 +11 +11 1016.8 1003.0
12 16.07 СЗ 2
{5}
70 км 10/1 1000 м
[Cu Sc Ac und]
+11.5 +5.4 66 +11 +13 1016.9 1003.1
13 16.07 С 3
{5}
н/о н/о +11.9 +5.8 66 +10 +10 1016.8 1003.0
14 16.07 СВ 3
{6}
н/о н/о +11.6 +5.5 66 +10 +10 1016.9 1003.1
15 16.07 С 3
{5}
>70 км 9/4 600 м
[Sc Ac trans]
+11.7 +5.4 65 +10 +11 1017.0 1003.2
16 16.07 н/о
17 16.07 С 3
{5}
н/о н/о +11.0 +6.0 71 +9 +9 1017.3 1003.4
18 16.07 С 2
{6}
>70 км 8/3 600 м
[Cu hum Ac trans]
+11.0 +5.5 69 +10 +10 1017.2 1003.4 +9.1 +12.0
19 16.07 С 2
{5}
н/о н/о +10.0 +5.6 74 +9 +9 1017.1 1003.2
20 16.07 С 3
{5}
н/о н/о +9.4 +5.2 75 +7 +7 1017.2 1003.3
21 16.07 С 3
{6}
>70 км 6/1 600 м
[Sc Ac trans]
+8.9 +5.1 77 +7 +7 1017.2 1003.3
22 16.07 СЗ 2
{5}
н/о н/о +8.4 +5.2 80 +7 +7 1017.4 1003.4
23 16.07 С 2
{4}
н/о н/о +7.8 +5.3 84 +6 +6 1017.3 1003.3
00 17.07 С 2
{6}
>70 км 8/1 600 м
[Sc Ac trans]
+7.6 +5.1 84 +6 +6 1017.3 1003.3
01 17.07 С 1
{5}
н/о н/о +8.0 +4.8 80 +7 +7 1017.4 1003.4
02 17.07 С 2
{4}
н/о н/о +7.9 +5.4 84 +6 +6 1017.2 1003.2
03 17.07 С 2
{4}
>70 км слаб. дождь 8/8 300 м
[Sc Ci fib]
+7.8 +5.4 85 +6 +6 1016.8 1002.8
04 17.07 С 3
{5}
н/о н/о +8.8 +5.0 77 +6 +6 1016.6 1002.7
05 17.07 С 3
{5}
н/о н/о +8.9 +5.3 78 +7 +7 1016.4 1002.5
06 17.07 С 2
{5}
>70 км {дождь} 9/9 300 м
[Sc]
+9.9 +5.7 75 +8 +9 1016.0 1002.1 +7.4 +11.0
07 17.07 С 2
{4}
н/о н/о +10.9 +5.2 68 +10 +10 1015.8 1002.0
08 17.07 С 2
{5}
н/о н/о +10.8 +5.8 71 +10 +10 1015.6 1001.8
09 17.07 СВ 1
{4}
70 км 9/9 600 м
[Sc]
+10.5 +5.3 70 +10 +11 1015.5 1001.7
10 17.07 С 1
{3}
н/о н/о +11.5 +5.8 68 +12 +12 1015.4 1001.6
11 17.07 СВ 2
{4}
н/о н/о +10.8 +5.4 69 +10 +10 1015.2 1001.4
12 17.07 СЗ 2
{5}
65 км осадки на расстоянии 9/8 600 м
[Sc Ac As]
+11.7 +5.6 66 +11 +12 1015.0 1001.2
13 17.07 СЗ 2
{4}
н/о н/о +11.2 +6.0 70 +10 +10 1014.8 1001.0
14 17.07 СЗ 2
{4}
н/о н/о +9.7 +5.9 77 +8 +8 1015.0 1001.1 0.1
15 17.07 СВ 2
{4}
70 км 9/9 300 м
[Sc]
+9.6 +5.2 74 +8 +9 1014.8 1000.9
16 17.07 СВ 2
{4}
н/о н/о +9.9 +5.1 72 +9 +9 1014.7 1000.8
17 17.07 СВ 2
{3}
н/о н/о +9.6 +5.2 74 +8 +8 1014.6 1000.7
18 17.07 СВ 2
{4}
>70 км 9/9 300 м
[Sc]
+9.1 +4.5 73 +8 +8 1014.5 1000.6 +9.1 +11.9 0.1
19 17.07 СВ 1
{3}
н/о н/о +8.7 +4.3 74 +8 +8 1014.6 1000.7
20 17.07 СВ 2
{4}
н/о н/о +8.4 +4.0 74 +7 +7 1014.5 1000.6
21 17.07 СВ 2
{4}
>70 км 10/10 600 м
[Sc]
+8.3 +4.1 75 +7 +7 1014.5 1000.6
22 17.07 СВ 2
{4}
н/о н/о +8.2 +4.1 75 +6 +6 1014.5 1000.6
23 17.07 СВ 2 н/о н/о +8.0 +4.0 76 +6 +6 1014.6 1000.6
00 18.07 С 1
{4}
>70 км 10/9 600 м
[Sc Ac As]
+7.8 +4.0 77 +7 +7 1014.7 1000.7
01 18.07 штиль 0
{2}
н/о н/о +7.7 +4.5 80 +7 +7 1014.7 1000.7
02 18.07 штиль 0
{1}
н/о н/о +8.0 +4.6 79 +7 +7 1014.7 1000.7
03 18.07 штиль 0
{1}
>70 км 9/9 600 м
[Sc Ac As]
+8.2 +5.0 80 +7 +8 1014.7 1000.8
04 18.07 СВ 1 н/о н/о +8.4 +4.6 77 +8 +8 1014.7 1000.8
05 18.07 СВ 1
{2}
н/о н/о +8.8 +5.2 78 +8 +8 1014.6 1000.7
06 18.07 СВ 2
{2}
>70 км 9/9 600 м
[Sc]
+9.5 +5.3 75 +8 +8 1014.7 1000.8 +7.6 +9.6

 

Местоположение метеостанции Тромсё (Норвегия): широта 69.65 долгота 18.94 высота над уровнем моря 100 м.

В архиве по умолчанию представлена погода в Тромсё за последнюю неделю. Архивные данные за месяц целиком и за предыдущие месяцы, начиная с января 2011 года, Вы можете получить, выбрав интересующий диапазон дат из раскрывающегося списка и нажав кнопку "Ввод!".


*Определитесь, кто Вы:
робот инопланетянин человек

Внимание! Время в таблицах - всемирное. Для получения местного времени необходимо прибавить поправку, которая равна 1 ч.

Смотрите также архив погоды в соседних городах и на ближайших метеорологических станциях:

Погода в Тромсё (Холт) (Норвегия) (1 км)
Погода в Тромсё аэропорту (Норвегия) (4 км)
Погода на Маяке Hekkingen (Норвегия) (43 км)
Погода в Люнгене (Норвегия) (46 км)
Погода в Норднесфьеллете (Норвегия) (58 км)
Погода в Шиботне (Норвегия) (60 км)
Погода в Бардуфоссе (Норвегия) (67 км)
Погода на Маяке Torsvag (Норвегия) (70 км)
Погода в Сёрхьюсен аэропорту (Норвегия) (79 км)
Погода в Килписйарви (Финляндия) (99 км)

Пояснения к столбцам:

Ветер - указаны скорость ветра в м/с - средняя за 10 мин, порывы в срок и между сроками (в фигурных скобках) и направление, откуда дует ветер: С - северный, СВ - северо-восточный, В - восточный, ЮВ - юго-восточный, Ю - южный, ЮЗ - юго-западный, З - западный, СЗ - северо-западный.
Видимость - горизонтальная дальность видимости в метрах или километрах. При видимости от 1 до 10 км при отсутствии осадков обычно наблюдается дымка, при ухудшении видимости до 1 км и менее - туман. В сухую погоду видимость может ухудшаться дымом, пылью или мглою.
Явления - указаны атмосферные явления, наблюдавшиеся в срок или в последний час перед сроком; фигурными скобками обозначены явления, наблюдавшиеся между сроками (за 1-3 часа до срока); квадратными скобками обозначены град или гололедные отложения с указанием их диаметра в мм.
Облачность - указаны через наклонную черту общая и нижняя облачность в баллах и высота нижней границы облаков в метрах; квадратными скобками обозначены формы облаков: Ci - перистые, Cs - перисто-слоистые, Cc - перисто-кучевые, Ac - высококучевые, As - высокослоистые, Sc - слоисто-кучевые, Ns - слоисто-дождевые, Cu - кучевые, Cb - кучево-дождевые. Подробнее классификацию облаков см. в Атласе облаков (PDF).
T - Температура воздуха - температура, измеренная на высоте 2 м над землей.
Td - Температура точки росы - температура, при понижении до которой содержащийся в воздухе водяной пар достигнет насыщения.
f - Относительная влажность воздуха - влажноcть воздуха, измеренная на высоте 2 м над землей.
Te - Эффективная температура - температура, которую ощущает одетый по сезону человек в тени. Характеристика душности погоды. При расчете учитывается влияние влажности воздуха и скорости ветра на теплоощущения человека.
Tes - Эффективная температура на солнце - температура, которую ощущает человек, с поправкой на солнечный нагрев. Характеристика знойности погоды. Зависит от высоты солнца над горизонтом, облачности и скорости ветра. Ночью, в пасмурную погоду, а также при ветре 12 м/с и более поправка равна нулю.
P - Атмосферное давление - приведенное к уровню моря атмосферное давление.
Po - Атмосферное давление - измеренное на уровне метеостанции атмосферное давление.
Tmin - Минимальная температура - минимум температуры воздуха на высоте 2 м над землей.
Tmax - Максимальная температура - максимум температуры воздуха на высоте 2 м над землей.
R - Количество осадков - Количество выпавших осадков за период времени, мм. При наведении курсора мыши на число - период времени, за который выпало указанное количество осадков.
R24 - Количество осадков - Количество выпавших осадков за 24 часа, мм.
S - Снежный покров - Высота снежного покрова, см. При наведении курсора мыши на число - состояние снежного покрова и степень покрытия местности в баллах.